[[{"header":{"parameterUnit":"m.s-1","parameterCategory":2,"la1":30.2991,"la2":30.254,"lo1":-89.0895,"lo2":-89.0444,"dy":0.0017,"dx":0.0017,"nx":28,"ny":28,"refTime":"2024-05-25T21:00:00:Z","depth":"0","parameterNumber":2,"parameterNumberName":"U-component_of_CURRENTS"},"data":[0,0,0,0,0,0,0,0,0,0,0,0,0,0,0,0,0,0,0,0,0,0,0,0,0,0,0,0,0,0,0,0,0,0,0,0,0,0,0,0,0,0,0,0,0,0,0,0,0,0,0,0,0,0,0,0,0,0,-0.2323,-0.2323,0,-0.2326,-0.2326,-0.2326,-0.2286,-0.2285,-0.2284,-0.2283,-0.2224,-0.2224,-0.2223,0,0,0,0,0,0,0,0,0,0,0,0,0,-0.2271,-0.2272,-0.2323,-0.2323,-0.2324,-0.2326,-0.2326,-0.2326,-0.2286,-0.2285,-0.2284,-0.2283,-0.2225,-0.2224,-0.2223,0,0,0,0,0,0,0,0,0,0,0,0,0,-0.2282,-0.2272,-0.2323,-0.2307,-0.2306,-0.2327,-0.2326,-0.2326,-0.2286,-0.2285,-0.2284,-0.2283,-0.2225,-0.2224,-0.2223,-0.2237,0,0,-0.2219,-0.2218,0,0,0,0,0,0,0,0,-0.2282,-0.2284,-0.2309,-0.2308,-0.2307,-0.2308,-0.2287,-0.2294,-0.2286,-0.2289,-0.2283,-0.2282,-0.225,-0.2247,-0.2245,-0.2234,-0.2232,-0.2218,-0.2218,-0.2217,-0.2217,0,0,0,0,0,0,0,-0.2281,-0.2284,-0.232,-0.2309,-0.2308,-0.2296,-0.2296,-0.2288,-0.2272,-0.2289,-0.2287,-0.2294,-0.2248,-0.2246,-0.2243,-0.2231,-0.2218,-0.2217,-0.2216,-0.2216,-0.2222,-0.2223,0,0,0,0,0,0,-0.2291,-0.2283,-0.232,-0.2321,-0.2296,-0.2299,-0.2298,-0.2306,-0.2273,-0.2269,-0.2295,-0.2292,-0.2249,-0.2245,-0.2241,-0.2256,-0.2217,-0.2216,-0.2215,-0.2221,-0.2222,-0.2223,0,0,0,0,0,0,-0.2289,-0.2294,-0.232,-0.2305,-0.2308,-0.2301,-0.2309,-0.2306,-0.2301,-0.2279,-0.2272,-0.2293,-0.2248,-0.2243,-0.2237,-0.2253,-0.2215,-0.2214,-0.222,-0.2221,-0.2223,-0.2285,0,0,0,0,0,0,-0.2288,-0.2293,-0.2297,-0.2306,-0.2309,-0.2337,-0.2311,-0.2307,-0.2309,-0.2305,-0.2276,-0.2269,-0.2247,-0.2239,-0.2236,-0.225,-0.2213,-0.2219,-0.2221,-0.2222,-0.2282,-0.2288,-0.2294,0,0,0,0,0,-0.2286,-0.2296,-0.2297,-0.2301,-0.2316,-0.2338,-0.2339,-0.2327,-0.2311,-0.2316,-0.2295,-0.227,-0.2248,-0.2239,-0.2235,-0.2249,-0.2218,-0.222,-0.2222,-0.2279,-0.2287,-0.2294,0,0,0,0,0,0,-0.227,-0.2294,-0.2294,-0.2309,-0.2326,-0.2333,-0.2336,-0.2332,-0.2321,-0.231,-0.2282,-0.2276,-0.2278,-0.2257,-0.2248,-0.2257,-0.2229,-0.223,-0.2273,-0.2281,-0.2287,-0.229,-0.2212,0,0,0,0,0,-0.2273,-0.2285,-0.2309,-0.2319,-0.233,-0.2334,-0.234,-0.2336,-0.2333,-0.2326,-0.2309,-0.2291,-0.2286,-0.2277,-0.2267,-0.2272,-0.2234,-0.2279,-0.2285,-0.229,-0.229,-0.226,-0.2263,-0.223,-0.223,-0.223,0,0,-0.2267,-0.2284,-0.2289,-0.2317,-0.2326,-0.2354,-0.2333,-0.2347,-0.2364,-0.2322,-0.233,-0.2313,-0.2293,-0.2299,-0.2298,-0.2281,-0.2277,-0.2293,-0.2297,-0.2294,-0.2262,-0.2265,-0.2268,-0.2232,-0.2231,-0.2231,0,0,-0.2279,-0.2283,-0.2306,-0.2327,-0.2352,-0.2361,-0.2368,-0.2381,-0.2378,-0.2391,-0.2367,-0.2358,-0.2349,-0.2339,-0.2332,-0.2367,-0.2314,-0.2365,-0.2394,-0.2365,-0.2367,-0.2369,-0.2311,-0.2307,-0.2364,-0.2365,-0.2365,0,-0.2273,-0.2306,-0.2315,-0.235,-0.2367,-0.2369,-0.24,-0.2408,-0.2415,-0.2412,-0.2399,-0.2385,-0.2369,-0.2374,-0.239,-0.238,-0.2344,-0.2369,-0.2373,-0.2373,-0.2374,-0.2314,-0.2309,-0.2368,-0.2368,-0.2367,-0.2367,0,-0.2313,-0.2337,-0.2353,-0.2398,-0.2418,-0.2441,-0.2464,-0.2473,-0.2467,-0.2468,-0.2467,-0.2448,-0.2432,-0.2436,-0.2425,-0.2427,-0.2393,-0.2386,-0.2353,-0.2381,-0.2316,-0.2309,-0.2373,-0.2371,-0.237,-0.237,0,0,-0.2289,-0.2367,-0.2368,-0.2393,-0.2442,-0.2456,-0.2493,-0.2517,-0.2519,-0.2524,-0.2522,-0.2527,-0.2501,-0.2492,-0.2474,-0.2458,-0.2431,-0.2429,-0.2426,-0.2369,-0.2342,-0.2221,-0.2201,-0.2425,-0.2425,-0.2424,-0.2291,0,-0.2313,-0.238,-0.2415,-0.2462,-0.2492,-0.2512,-0.2541,-0.2558,-0.2559,-0.2556,-0.2541,-0.2533,-0.2528,-0.2512,-0.25,-0.245,-0.2419,-0.2466,-0.2326,-0.2321,-0.2208,-0.2191,-0.2092,-0.1957,-0.2284,-0.2283,-0.2282,0,-0.2332,-0.2374,-0.2432,-0.2482,-0.2495,-0.2523,-0.2542,-0.257,-0.2578,-0.2576,-0.257,-0.2553,-0.2537,-0.2524,-0.2449,-0.2478,-0.2416,-0.2375,-0.2368,-0.2228,-0.2187,-0.1985,-0.1931,-0.1914,-0.2271,-0.2272,-0.2272,0,-0.2293,-0.2373,-0.2413,-0.2435,-0.2502,-0.2516,-0.254,-0.2562,-0.2573,-0.2578,-0.2571,-0.2555,-0.2521,-0.2474,-0.2389,-0.2419,-0.2282,-0.2306,-0.2133,-0.2122,-0.1995,-0.1973,-0.1904,-0.2241,-0.2241,-0.2242,-0.2242,0,-0.2293,-0.2314,-0.2393,-0.2412,-0.2431,-0.2488,-0.2501,-0.2521,-0.2549,-0.2532,-0.2566,-0.2524,-0.2508,-0.243,-0.2374,-0.2207,-0.2258,-0.212,-0.2078,-0.2011,-0.1994,-0.1938,-0.1981,-0.2237,-0.2238,-0.2239,-0.224,0,-0.2222,-0.2295,-0.2325,-0.2395,-0.2413,-0.2413,-0.2472,-0.2479,-0.2519,-0.2496,-0.2497,-0.2487,-0.2374,-0.2326,-0.2213,-0.2149,-0.1981,-0.1957,-0.1862,-0.1811,-0.1644,-0.1695,-0.1592,-0.1548,-0.1753,-0.1749,-0.1746,0,-0.2184,-0.2199,-0.2273,-0.229,-0.2316,-0.2345,-0.2364,-0.2437,-0.2448,-0.2437,-0.2411,-0.2328,-0.22,-0.2003,-0.189,-0.1738,-0.1796,-0.158,-0.1625,-0.1599,-0.1626,-0.1694,-0.1672,-0.1479,-0.1473,-0.1469,-0.1466,0,-0.2077,-0.2109,-0.214,-0.2174,-0.2203,-0.2227,-0.2262,-0.2251,-0.2304,-0.2276,-0.2163,-0.2057,-0.1896,-0.1673,-0.152,-0.1445,-0.155,-0.1485,-0.1492,-0.1422,-0.1459,-0.1407,-0.1598,-0.1428,-0.1432,-0.1435,-0.1437,-0.1438,-0.1963,-0.1959,-0.2006,-0.2019,-0.2053,-0.2029,-0.1938,-0.1971,-0.1902,-0.1727,-0.1837,-0.1568,-0.152,-0.1269,-0.1206,-0.1097,-0.122,-0.1085,-0.115,-0.1223,-0.1179,-0.1264,-0.103,-0.1032,-0.1033,-0.1034,-0.1035,0,-0.1801,-0.1821,-0.1841,-0.1812,-0.1737,-0.1843,-0.1799,-0.1652,-0.1432,-0.1346,-0.12,-0.1024,-0.0892,-0.0877,-0.0832,-0.0788,-0.083,-0.081,-0.0916,-0.0911,-0.0988,-0.0974,-0.0675,-0.0675,-0.0675,-0.0675,-0.0675,-0.0675,-0.172,-0.1687,-0.1706,-0.1498,-0.1457,-0.1276,-0.1187,-0.1016,-0.0891,-0.0572,-0.0385,-0.0344,-0.0505,-0.0699,-0.071,-0.0688,-0.0738,-0.0708,-0.077,-0.0866,-0.0899,-0.0931,-0.0926,-0.0622,-0.0622,-0.0649,-0.0649,-0.0649]},{"header":{"parameterUnit":"m.s-1","parameterCategory":2,"la1":30.2991,"la2":30.254,"lo1":-89.0895,"lo2":-89.0444,"dy":0.0017,"dx":0.0017,"nx":28,"ny":28,"refTime":"2024-05-25T21:00:00:Z","depth":"0","parameterNumber":3,"parameterNumberName":"V-component_of_CURRENTS"},"data":[0,0,0,0,0,0,0,0,0,0,0,0,0,0,0,0,0,0,0,0,0,0,0,0,0,0,0,0,0,0,0,0,0,0,0,0,0,0,0,0,0,0,0,0,0,0,0,0,0,0,0,0,0,0,0,0,0,0,-0.0212,-0.0211,0,-0.0135,-0.0134,-0.0133,-0.0075,-0.0075,-0.0074,-0.0074,0.0033,0.0035,0.0038,0,0,0,0,0,0,0,0,0,0,0,0,0,-0.0263,-0.0263,-0.0212,-0.0211,-0.021,-0.0135,-0.0134,-0.0133,-0.0075,-0.0075,-0.0074,-0.0073,0.0032,0.0035,0.0038,0,0,0,0,0,0,0,0,0,0,0,0,0,-0.0219,-0.0262,-0.0212,-0.0173,-0.0168,-0.0135,-0.0134,-0.0133,-0.0075,-0.0075,-0.0074,-0.0073,0.0031,0.0035,0.0038,0.0045,0,0,0.0049,0.0051,0,0,0,0,0,0,0,0,-0.0221,-0.0217,-0.0179,-0.0175,-0.017,-0.0114,-0.0113,-0.0072,-0.0076,-0.011,-0.0074,-0.0073,-0.0014,-0.0007,0.0006,0.005,0.0055,0.0049,0.0052,0.0053,0.0054,0,0,0,0,0,0,0,-0.0225,-0.022,-0.0181,-0.0178,-0.0173,-0.0143,-0.0136,-0.0105,-0.0067,-0.0107,-0.0103,-0.0095,-0.0012,0.0002,0.0009,0.0057,0.0049,0.0053,0.0055,0.0056,0.013,0.013,0,0,0,0,0,0,-0.0238,-0.0223,-0.0184,-0.0179,-0.0195,-0.0143,-0.0135,-0.0133,-0.0067,-0.0057,-0.0096,-0.0093,-0.0004,0.0005,0.0013,0.0029,0.0053,0.0056,0.0059,0.013,0.013,0.013,0,0,0,0,0,0,-0.024,-0.0236,-0.0187,-0.0199,-0.0191,-0.0143,-0.014,-0.0132,-0.0117,-0.0059,-0.0048,-0.009,-0.0003,0.0008,0.0039,0.0034,0.0058,0.0061,0.013,0.013,0.013,0.0059,0,0,0,0,0,0,-0.0241,-0.0237,-0.0243,-0.02,-0.0191,-0.0177,-0.0141,-0.0131,-0.0114,-0.0109,-0.0051,-0.004,-0.0002,0.0033,0.0043,0.0039,0.0064,0.0131,0.013,0.013,0.0062,0.0057,0.0052,0,0,0,0,0,-0.0244,-0.026,-0.0244,-0.0239,-0.02,-0.0178,-0.0171,-0.0133,-0.0114,-0.0116,-0.0073,-0.0042,0.0038,0.0036,0.0047,0.0044,0.0131,0.013,0.013,0.0064,0.0058,0.0052,0,0,0,0,0,0,-0.0287,-0.0254,-0.0236,-0.0241,-0.0215,-0.0168,-0.0168,-0.014,-0.0108,-0.0103,-0.0045,-0.0032,-0.0008,0.0027,0.0024,0.0065,0.009,0.0092,0.0036,0.0031,0.0026,0.0021,0.0067,0,0,0,0,0,-0.03,-0.0303,-0.0263,-0.0268,-0.0259,-0.0214,-0.0201,-0.0176,-0.014,-0.0125,-0.0083,-0.0038,-0.0002,0.0021,0.0055,0.0077,0.0133,0.0084,0.0079,0.0074,0.0078,0.0155,0.0157,0.0128,0.0128,0.0128,0,0,-0.0318,-0.0301,-0.0302,-0.0278,-0.0254,-0.0251,-0.0205,-0.0193,-0.0185,-0.0119,-0.0099,-0.0057,-0.0001,0.0023,0.0038,0.0054,0.0112,0.0074,0.007,0.0076,0.0155,0.0158,0.016,0.0128,0.0128,0.0128,0,0,-0.0364,-0.0342,-0.0361,-0.0343,-0.0315,-0.0285,-0.0285,-0.0242,-0.0218,-0.0195,-0.0143,-0.0102,-0.0054,-0.0007,0.0022,0.0012,0.0079,0.0019,-0.0003,0.007,0.0074,0.0077,0.0151,0.0162,0.0022,0.0022,0.0022,0,-0.039,-0.0402,-0.0364,-0.0375,-0.0362,-0.0305,-0.0317,-0.0287,-0.0238,-0.0211,-0.02,-0.0105,-0.0065,-0.0012,-0.0018,0.0001,0.0056,0.0011,0.0064,0.0069,0.0074,0.0149,0.0162,0.0018,0.0019,0.0019,0.0019,0,-0.0448,-0.0452,-0.0462,-0.0453,-0.0435,-0.0436,-0.0387,-0.0364,-0.0326,-0.0282,-0.0227,-0.0166,-0.0101,-0.0088,-0.0058,-0.0004,0.0027,0.0044,0.0077,0.0073,0.0152,0.0167,0.0013,0.0015,0.0016,0.0016,0,0,-0.0518,-0.0506,-0.051,-0.0507,-0.0473,-0.0462,-0.0445,-0.0399,-0.0369,-0.032,-0.0271,-0.0215,-0.0163,-0.0127,-0.0075,-0.0016,0.0057,0.0021,0.0027,0.0091,0.0227,0.0263,0.0283,0.0084,0.0087,0.0088,0.0268,0,-0.0574,-0.0614,-0.0584,-0.0599,-0.0608,-0.0541,-0.0521,-0.0467,-0.0409,-0.0347,-0.0265,-0.0205,-0.0182,-0.0144,-0.0084,0.0029,0.0092,0.0007,0.0225,0.0232,0.0262,0.0299,0.0335,0.05,0.0283,0.0286,0.0287,0,-0.0642,-0.0654,-0.069,-0.0653,-0.0648,-0.0643,-0.0576,-0.0548,-0.0445,-0.0396,-0.0316,-0.0238,-0.0139,-0.0124,0.0063,0.001,0.0107,0.0189,0.0198,0.0268,0.0295,0.0471,0.0536,0.0647,0.0311,0.0309,0.0307,0,-0.0712,-0.0719,-0.0747,-0.0741,-0.0699,-0.0687,-0.0654,-0.0567,-0.0518,-0.0417,-0.0357,-0.0239,-0.0148,-0.0028,0.0136,0.0108,0.0351,0.034,0.0466,0.0471,0.0564,0.0572,0.0761,0.0471,0.047,0.047,0.0469,0,-0.0781,-0.0796,-0.0782,-0.0796,-0.08,-0.0744,-0.0714,-0.0664,-0.0562,-0.0468,-0.0383,-0.0271,-0.0117,0.0044,0.0156,0.037,0.0376,0.0481,0.0526,0.0539,0.0543,0.0693,0.072,0.0477,0.0475,0.0474,0.0473,0,-0.0844,-0.0846,-0.0866,-0.0844,-0.0837,-0.0837,-0.0762,-0.0718,-0.0626,-0.0497,-0.0458,-0.0268,-0.0054,0.0102,0.0335,0.0425,0.0685,0.0669,0.0671,0.0712,0.0902,0.0922,0.1145,0.1238,0.0837,0.0839,0.0841,0,-0.088,-0.0903,-0.0911,-0.0916,-0.0906,-0.089,-0.0859,-0.0774,-0.0687,-0.0466,-0.0379,-0.0164,0.0044,0.037,0.054,0.0752,0.0816,0.0904,0.0848,0.0939,0.0997,0.0988,0.1049,0.0952,0.0955,0.0957,0.0959,0,-0.0928,-0.0933,-0.095,-0.0955,-0.0947,-0.0904,-0.0832,-0.0761,-0.0593,-0.0447,-0.0172,0.0001,0.0277,0.0558,0.0779,0.0884,0.0988,0.0952,0.1064,0.1121,0.1112,0.1214,0.08,0.0977,0.0975,0.0974,0.0973,0.0972,-0.0951,-0.0974,-0.0977,-0.0962,-0.0937,-0.082,-0.0739,-0.0595,-0.0396,-0.0064,0.0039,0.0389,0.0592,0.0914,0.1025,0.1217,0.1164,0.1285,0.1312,0.1302,0.1365,0.0983,0.1188,0.1187,0.1187,0.1186,0.1186,0,-0.0952,-0.0955,-0.096,-0.0901,-0.0803,-0.0805,-0.0634,-0.0476,-0.0167,0.01,0.0396,0.0859,0.1109,0.1262,0.1466,0.1585,0.1584,0.1631,0.164,0.1693,0.1392,0.1369,0.16,0.16,0.16,0.16,0.16,0.16,-0.0952,-0.0942,-0.092,-0.0741,-0.0681,-0.0515,-0.0385,-0.0154,0.0078,0.0595,0.0958,0.1198,0.1427,0.1663,0.1876,0.1893,0.2012,0.1969,0.2052,0.1835,0.1804,0.1774,0.1762,0.2072,0.2072,0.2352,0.2354,0.2356]}],[{"header":{"parameterUnit":"m.s-1","parameterCategory":2,"la1":30.2991,"la2":30.254,"lo1":-89.0895,"lo2":-89.0444,"dy":0.0017,"dx":0.0017,"nx":28,"ny":28,"refTime":"2024-05-25T21:00:00:Z","depth":"2","parameterNumber":2,"parameterNumberName":"U-component_of_CURRENTS"},"data":[0,0,0,0,0,0,0,0,0,0,0,0,0,0,0,0,0,0,0,0,0,0,0,0,0,0,0,0,0,0,0,0,0,0,0,0,0,0,0,0,0,0,0,0,0,0,0,0,0,0,0,0,0,0,0,0,0,0,-0.2256,-0.2257,0,-0.227,-0.227,-0.227,-0.2238,-0.2237,-0.2237,-0.2236,-0.219,-0.219,-0.2189,0,0,0,0,0,0,0,0,0,0,0,0,0,-0.22,-0.2201,-0.2256,-0.2257,-0.2257,-0.227,-0.227,-0.227,-0.2238,-0.2237,-0.2236,-0.2236,-0.219,-0.219,-0.2189,0,0,0,0,0,0,0,0,0,0,0,0,0,-0.2217,-0.2202,-0.2256,-0.2245,-0.2245,-0.227,-0.227,-0.2269,-0.2238,-0.2237,-0.2236,-0.2235,-0.2191,-0.219,-0.2189,-0.2205,0,0,-0.2186,-0.2186,0,0,0,0,0,0,0,0,-0.2216,-0.2219,-0.2246,-0.2246,-0.2246,-0.2254,-0.2233,-0.2246,-0.2239,-0.2238,-0.2236,-0.2235,-0.2209,-0.2206,-0.2208,-0.2203,-0.2201,-0.2186,-0.2186,-0.2186,-0.2185,0,0,0,0,0,0,0,-0.2215,-0.2218,-0.2258,-0.2247,-0.2247,-0.2239,-0.224,-0.2236,-0.2226,-0.2238,-0.2236,-0.2243,-0.2208,-0.2209,-0.2206,-0.2201,-0.2186,-0.2186,-0.2185,-0.2185,-0.2203,-0.2204,0,0,0,0,0,0,-0.2222,-0.2217,-0.2258,-0.2259,-0.2232,-0.2241,-0.2242,-0.225,-0.2227,-0.2224,-0.2244,-0.2241,-0.2211,-0.2207,-0.2205,-0.2224,-0.2186,-0.2185,-0.2184,-0.2202,-0.2203,-0.2204,0,0,0,0,0,0,-0.222,-0.2225,-0.2258,-0.2241,-0.2245,-0.2244,-0.2252,-0.2251,-0.225,-0.2233,-0.2228,-0.2245,-0.221,-0.2206,-0.2205,-0.2222,-0.2184,-0.2184,-0.2201,-0.2202,-0.2204,-0.2262,0,0,0,0,0,0,-0.2219,-0.2225,-0.2229,-0.2241,-0.2246,-0.2276,-0.2254,-0.2252,-0.2257,-0.2254,-0.2232,-0.2227,-0.2209,-0.2207,-0.2205,-0.222,-0.2183,-0.22,-0.2201,-0.2203,-0.2259,-0.2266,-0.2271,0,0,0,0,0,-0.2217,-0.2228,-0.223,-0.2235,-0.2254,-0.2278,-0.2279,-0.2272,-0.2259,-0.2265,-0.2251,-0.2227,-0.2217,-0.2207,-0.2204,-0.222,-0.2199,-0.2201,-0.2203,-0.2256,-0.2264,-0.2271,0,0,0,0,0,0,-0.2203,-0.2227,-0.2228,-0.2245,-0.2263,-0.2273,-0.2279,-0.2277,-0.2272,-0.2265,-0.2241,-0.2236,-0.2243,-0.2226,-0.2216,-0.2231,-0.2204,-0.2205,-0.2245,-0.2252,-0.2258,-0.226,-0.2182,0,0,0,0,0,-0.2206,-0.2219,-0.2243,-0.2256,-0.2267,-0.2275,-0.2282,-0.2282,-0.2283,-0.2279,-0.2266,-0.2253,-0.2252,-0.2246,-0.2241,-0.225,-0.2215,-0.2258,-0.2264,-0.2269,-0.2269,-0.224,-0.2243,-0.2211,-0.2211,-0.2211,0,0,-0.2202,-0.2219,-0.2225,-0.2254,-0.2265,-0.2293,-0.2275,-0.2292,-0.2311,-0.2275,-0.2288,-0.2275,-0.226,-0.2271,-0.2272,-0.2256,-0.2258,-0.2272,-0.2276,-0.2273,-0.2242,-0.2245,-0.2248,-0.2213,-0.2213,-0.2212,0,0,-0.2214,-0.2222,-0.2243,-0.2264,-0.2291,-0.2301,-0.231,-0.2326,-0.2327,-0.2344,-0.2323,-0.232,-0.2318,-0.231,-0.2306,-0.2342,-0.2293,-0.2342,-0.2371,-0.2343,-0.2345,-0.2346,-0.2296,-0.2293,-0.2342,-0.2342,-0.2342,0,-0.2209,-0.224,-0.2252,-0.2284,-0.2302,-0.2309,-0.2339,-0.2351,-0.2363,-0.2364,-0.2354,-0.2349,-0.2337,-0.2346,-0.2362,-0.2355,-0.2322,-0.2345,-0.235,-0.235,-0.2351,-0.2299,-0.2295,-0.2345,-0.2345,-0.2345,-0.2344,0,-0.2244,-0.2269,-0.2284,-0.2327,-0.2349,-0.2373,-0.24,-0.2413,-0.2413,-0.2418,-0.2424,-0.241,-0.24,-0.2405,-0.2397,-0.2401,-0.2371,-0.2362,-0.233,-0.2357,-0.2301,-0.2295,-0.235,-0.2349,-0.2348,-0.2347,0,0,-0.2223,-0.2295,-0.2298,-0.2322,-0.2372,-0.2389,-0.2428,-0.2455,-0.2462,-0.2473,-0.2475,-0.2487,-0.2465,-0.246,-0.2445,-0.243,-0.2408,-0.2404,-0.2401,-0.2351,-0.2327,-0.2209,-0.219,-0.24,-0.2399,-0.2399,-0.2283,0,-0.2243,-0.2304,-0.2338,-0.2385,-0.2415,-0.244,-0.2471,-0.2494,-0.2501,-0.2504,-0.2496,-0.2492,-0.2491,-0.2479,-0.2469,-0.2424,-0.2397,-0.2439,-0.2311,-0.2306,-0.2195,-0.2181,-0.205,-0.1928,-0.2277,-0.2276,-0.2275,0,-0.2257,-0.2298,-0.2352,-0.2406,-0.242,-0.2449,-0.2478,-0.2508,-0.2524,-0.2526,-0.2526,-0.2512,-0.2502,-0.249,-0.2425,-0.245,-0.2396,-0.2358,-0.2352,-0.2216,-0.2177,-0.1959,-0.1903,-0.2264,-0.2265,-0.2266,-0.2267,0,-0.222,-0.2296,-0.2335,-0.2358,-0.2428,-0.2446,-0.2475,-0.2504,-0.2517,-0.253,-0.2525,-0.2515,-0.2488,-0.2445,-0.2372,-0.2397,-0.2276,-0.2295,-0.2133,-0.2123,-0.1971,-0.1948,-0.2237,-0.2237,-0.2237,-0.2238,-0.2238,0,-0.2218,-0.2241,-0.2318,-0.2339,-0.2363,-0.2423,-0.2442,-0.2467,-0.2498,-0.2491,-0.2522,-0.249,-0.2476,-0.2408,-0.2358,-0.2206,-0.2256,-0.2122,-0.2082,-0.1986,-0.1967,-0.2235,-0.2236,-0.2233,-0.2234,-0.2235,-0.2236,0,-0.2154,-0.222,-0.2253,-0.2327,-0.2346,-0.2354,-0.2415,-0.2424,-0.2468,-0.2457,-0.246,-0.2457,-0.2359,-0.2314,-0.2215,-0.2153,-0.2045,-0.1977,-0.1852,-0.18,-0.1918,-0.1924,-0.1793,-0.1787,-0.1783,-0.1779,-0.1776,0,-0.2122,-0.2136,-0.2209,-0.2225,-0.2255,-0.229,-0.2308,-0.2383,-0.2396,-0.2411,-0.2388,-0.2321,-0.2216,-0.2031,-0.1912,-0.1767,-0.1882,-0.1585,-0.1614,-0.1896,-0.1871,-0.1884,-0.1896,-0.1435,-0.143,-0.1425,-0.1421,0,-0.2032,-0.2057,-0.2086,-0.212,-0.2149,-0.2184,-0.2222,-0.2227,-0.2294,-0.2275,-0.22,-0.2117,-0.1944,-0.1711,-0.155,-0.1472,-0.1605,-0.1483,-0.1791,-0.157,-0.1549,-0.1529,-0.1554,-0.138,-0.1384,-0.1387,-0.1389,-0.1391,-0.193,-0.1921,-0.1959,-0.1976,-0.2028,-0.2045,-0.1988,-0.2028,-0.1999,-0.1919,-0.1969,-0.1777,-0.1703,-0.1347,-0.1226,-0.1143,-0.1263,-0.1236,-0.1254,-0.1277,-0.1258,-0.1231,-0.0997,-0.0999,-0.1,-0.1002,-0.1003,0,-0.1766,-0.1789,-0.1808,-0.1827,-0.1815,-0.1898,-0.1892,-0.182,-0.1693,-0.1678,-0.1573,-0.1327,-0.1141,-0.1074,-0.0854,-0.0793,-0.0838,-0.0786,-0.0861,-0.09,-0.0936,-0.0905,-0.0547,-0.0546,-0.0545,-0.0544,0,0,-0.1683,-0.1634,-0.1649,-0.1587,-0.1612,-0.1501,-0.1446,-0.1373,-0.133,-0.1187,-0.1066,-0.1121,-0.1071,-0.083,-0.0754,-0.0617,-0.0776,-0.0592,-0.0958,-0.109,-0.1125,-0.1187,-0.1181,0,0,0,0,0]},{"header":{"parameterUnit":"m.s-1","parameterCategory":2,"la1":30.2991,"la2":30.254,"lo1":-89.0895,"lo2":-89.0444,"dy":0.0017,"dx":0.0017,"nx":28,"ny":28,"refTime":"2024-05-25T21:00:00:Z","depth":"2","parameterNumber":3,"parameterNumberName":"V-component_of_CURRENTS"},"data":[0,0,0,0,0,0,0,0,0,0,0,0,0,0,0,0,0,0,0,0,0,0,0,0,0,0,0,0,0,0,0,0,0,0,0,0,0,0,0,0,0,0,0,0,0,0,0,0,0,0,0,0,0,0,0,0,0,0,-0.0283,-0.0283,0,-0.0207,-0.0207,-0.0206,-0.0155,-0.0155,-0.0154,-0.0154,-0.005,-0.0048,-0.0045,0,0,0,0,0,0,0,0,0,0,0,0,0,-0.034,-0.034,-0.0283,-0.0283,-0.0282,-0.0208,-0.0207,-0.0205,-0.0155,-0.0155,-0.0154,-0.0154,-0.0051,-0.0048,-0.0045,0,0,0,0,0,0,0,0,0,0,0,0,0,-0.0295,-0.0339,-0.0284,-0.0248,-0.0244,-0.0208,-0.0206,-0.0205,-0.0155,-0.0154,-0.0154,-0.0154,-0.0052,-0.0048,-0.0045,-0.0032,0,0,-0.0033,-0.0032,0,0,0,0,0,0,0,0,-0.0298,-0.0293,-0.0254,-0.025,-0.0246,-0.019,-0.0188,-0.0146,-0.0155,-0.0188,-0.0154,-0.0153,-0.0095,-0.0088,-0.0074,-0.0027,-0.0022,-0.0033,-0.0031,-0.0029,-0.0028,0,0,0,0,0,0,0,-0.0301,-0.0296,-0.0253,-0.0253,-0.0248,-0.022,-0.0213,-0.018,-0.0145,-0.0185,-0.0182,-0.0174,-0.0092,-0.0078,-0.0072,-0.0021,-0.0033,-0.003,-0.0028,-0.0026,0.0059,0.0059,0,0,0,0,0,0,-0.0314,-0.0299,-0.0255,-0.0251,-0.0271,-0.022,-0.0212,-0.0208,-0.0145,-0.0136,-0.0174,-0.0172,-0.0085,-0.0076,-0.0068,-0.0044,-0.0029,-0.0026,-0.0024,0.0059,0.0059,0.0059,0,0,0,0,0,0,-0.0315,-0.0311,-0.0259,-0.0273,-0.0264,-0.022,-0.0215,-0.0207,-0.0192,-0.0137,-0.0127,-0.0168,-0.0084,-0.0073,-0.0039,-0.004,-0.0024,-0.0021,0.0059,0.0059,0.0059,0.0001,0,0,0,0,0,0,-0.0317,-0.0312,-0.0316,-0.0274,-0.0264,-0.0244,-0.0216,-0.0206,-0.0188,-0.0184,-0.0129,-0.0118,-0.0083,-0.0044,-0.0035,-0.0034,-0.0018,0.0059,0.0059,0.0059,0.0003,-0.0001,-0.0004,0,0,0,0,0,-0.032,-0.033,-0.0317,-0.0311,-0.0271,-0.0245,-0.0237,-0.0203,-0.0189,-0.0187,-0.0147,-0.012,-0.0037,-0.0042,-0.003,-0.0029,0.0059,0.0059,0.0059,0.0004,-0.0,-0.0004,0,0,0,0,0,0,-0.0357,-0.0324,-0.0309,-0.0309,-0.0282,-0.0236,-0.0234,-0.0209,-0.0176,-0.0173,-0.012,-0.0107,-0.0079,-0.0045,-0.0052,-0.0003,0.0016,0.0018,-0.003,-0.0034,-0.0037,-0.0046,-0.0015,0,0,0,0,0,-0.0368,-0.0368,-0.0329,-0.033,-0.0319,-0.0278,-0.0264,-0.0241,-0.0205,-0.019,-0.015,-0.0106,-0.0069,-0.0046,-0.0012,0.0015,0.006,0.0025,0.0021,0.0018,0.0019,0.0083,0.0085,0.006,0.006,0.006,0,0,-0.0383,-0.0366,-0.0365,-0.0338,-0.0315,-0.0306,-0.0268,-0.0253,-0.0242,-0.0184,-0.016,-0.0121,-0.0066,-0.0037,-0.0021,-0.0008,0.0049,0.0018,0.0015,0.0017,0.0083,0.0086,0.0088,0.006,0.006,0.006,0,0,-0.0417,-0.0398,-0.041,-0.039,-0.0362,-0.0333,-0.0332,-0.029,-0.0267,-0.024,-0.0194,-0.0154,-0.0102,-0.0057,-0.0029,-0.003,0.0023,-0.0022,-0.0041,0.0021,0.0024,0.0026,0.0085,0.0094,-0.0019,-0.0019,-0.0019,0,-0.0438,-0.0444,-0.041,-0.0413,-0.04,-0.035,-0.0355,-0.0325,-0.0276,-0.0253,-0.0242,-0.015,-0.0109,-0.0057,-0.0059,-0.0038,0.0004,-0.0032,0.0016,0.002,0.0024,0.0083,0.0094,-0.0022,-0.0021,-0.0021,-0.0021,0,-0.0479,-0.0479,-0.0485,-0.0471,-0.0453,-0.045,-0.0402,-0.0381,-0.0348,-0.0308,-0.0256,-0.0195,-0.0136,-0.0119,-0.009,-0.004,-0.0018,-0.0001,0.0024,0.0023,0.0086,0.0097,-0.0026,-0.0025,-0.0024,-0.0023,0,0,-0.0538,-0.0519,-0.0523,-0.052,-0.0483,-0.0472,-0.045,-0.0409,-0.0385,-0.0335,-0.0295,-0.0232,-0.0189,-0.0154,-0.0105,-0.0052,0.0008,-0.0021,-0.0017,0.0031,0.0146,0.0179,0.0195,0.0032,0.0034,0.0035,0.0178,0,-0.0582,-0.0609,-0.0578,-0.0588,-0.0594,-0.0534,-0.0514,-0.0466,-0.0415,-0.0364,-0.0286,-0.0234,-0.0204,-0.0173,-0.0117,-0.0019,0.0037,-0.0032,0.0145,0.015,0.0176,0.0209,0.0155,0.0279,0.019,0.0192,0.0193,0,-0.0635,-0.0643,-0.067,-0.064,-0.0635,-0.0628,-0.0577,-0.0549,-0.046,-0.0417,-0.0346,-0.0277,-0.0186,-0.0166,-0.0001,-0.0046,0.004,0.0113,0.0121,0.0181,0.0205,0.0267,0.0304,0.0214,0.0212,0.021,0.0209,0,-0.0704,-0.0703,-0.0727,-0.072,-0.0682,-0.0674,-0.0647,-0.0572,-0.0535,-0.0446,-0.0399,-0.029,-0.0213,-0.0103,0.0048,0.0027,0.0234,0.0229,0.0342,0.0345,0.035,0.0351,0.0343,0.0342,0.0342,0.0342,0.0341,0,-0.0763,-0.0778,-0.0763,-0.0776,-0.0789,-0.0735,-0.0719,-0.0675,-0.0591,-0.0521,-0.0432,-0.0342,-0.0193,-0.0052,0.0057,0.0247,0.0248,0.0352,0.0391,0.0328,0.0325,0.0305,0.0299,0.0347,0.0346,0.0345,0.0344,0,-0.0829,-0.0823,-0.0846,-0.0828,-0.0824,-0.0834,-0.0778,-0.0753,-0.0667,-0.0572,-0.0539,-0.0365,-0.0174,-0.0021,0.019,0.0278,0.0438,0.0501,0.0417,0.0442,0.0502,0.0491,0.064,0.0642,0.0644,0.0646,0.0648,0,-0.0866,-0.0887,-0.0899,-0.0917,-0.0912,-0.0908,-0.0895,-0.0815,-0.0762,-0.0562,-0.0509,-0.0307,-0.0129,0.0175,0.0343,0.0543,0.0529,0.0608,0.0558,0.0513,0.0536,0.0521,0.0508,0.0542,0.0542,0.0543,0.0543,0,-0.0925,-0.0931,-0.0953,-0.0997,-0.1007,-0.0997,-0.0958,-0.0919,-0.0774,-0.0657,-0.0436,-0.0276,0.0028,0.0254,0.0487,0.0579,0.0564,0.0624,0.0626,0.0469,0.0431,0.0449,0.0438,0.0547,0.0546,0.0546,0.0546,0.0546,-0.0967,-0.1003,-0.1036,-0.108,-0.108,-0.1059,-0.1019,-0.0921,-0.0805,-0.0574,-0.0419,-0.0183,0.004,0.0349,0.0535,0.0657,0.066,0.0668,0.0663,0.0658,0.0615,0.0582,0.0718,0.0719,0.0719,0.072,0.072,0,-0.1025,-0.1057,-0.1108,-0.1163,-0.1188,-0.1138,-0.103,-0.098,-0.0796,-0.0565,-0.0335,-0.0145,0.0112,0.0312,0.0539,0.0708,0.0654,0.0698,0.0607,0.0603,0.0599,0.0549,0.0638,0.0638,0.0639,0.0639,0,0,-0.1054,-0.1133,-0.1171,-0.1255,-0.1255,-0.1149,-0.1049,-0.0945,-0.0768,-0.0546,-0.0353,-0.017,0.0095,0.0225,0.0434,0.0563,0.0531,0.0543,0.0591,0.0458,0.0453,0.0563,0.048,0,0,0,0,0]}],[{"header":{"parameterUnit":"m.s-1","parameterCategory":2,"la1":30.2991,"la2":30.254,"lo1":-89.0895,"lo2":-89.0444,"dy":0.0017,"dx":0.0017,"nx":28,"ny":28,"refTime":"2024-05-25T21:00:00:Z","depth":"4","parameterNumber":2,"parameterNumberName":"U-component_of_CURRENTS"},"data":[0,0,0,0,0,0,0,0,0,0,0,0,0,0,0,0,0,0,0,0,0,0,0,0,0,0,0,0,0,0,0,0,0,0,0,0,0,0,0,0,0,0,0,0,0,0,0,0,0,0,0,0,0,0,0,0,0,0,-0.1623,-0.1624,0,-0.1689,-0.1689,-0.169,-0.1722,-0.1722,-0.1722,-0.1722,-0.177,-0.1771,-0.1772,0,0,0,0,0,0,0,0,0,0,0,0,0,-0.1528,-0.1529,-0.1623,-0.1624,-0.1625,-0.1689,-0.169,-0.169,-0.1722,-0.1722,-0.1722,-0.1722,-0.1769,-0.177,-0.1772,0,0,0,0,0,0,0,0,0,0,0,0,0,-0.1577,-0.153,-0.1622,-0.1649,-0.1653,-0.1689,-0.169,-0.169,-0.1722,-0.1722,-0.1722,-0.1722,-0.1769,-0.177,-0.1772,-0.1779,0,0,-0.1777,-0.1778,0,0,0,0,0,0,0,0,-0.1574,-0.158,-0.1644,-0.1648,-0.1651,-0.1699,-0.1674,-0.172,-0.1722,-0.1693,-0.1722,-0.1722,-0.1745,-0.1749,-0.1759,-0.1781,-0.1783,-0.1777,-0.1778,-0.1779,-0.178,0,0,0,0,0,0,0,-0.1571,-0.1578,-0.1647,-0.1645,-0.165,-0.166,-0.1667,-0.1682,-0.1716,-0.1696,-0.1699,-0.1709,-0.1747,-0.1757,-0.176,-0.1783,-0.1777,-0.1779,-0.178,-0.1781,-0.1869,-0.1871,0,0,0,0,0,0,-0.1566,-0.1575,-0.1645,-0.1649,-0.1615,-0.1661,-0.1669,-0.1682,-0.1716,-0.1722,-0.1709,-0.171,-0.1754,-0.1758,-0.1762,-0.1827,-0.1779,-0.1781,-0.1782,-0.1868,-0.187,-0.1871,0,0,0,0,0,0,-0.1564,-0.1572,-0.1642,-0.1615,-0.1625,-0.1663,-0.1677,-0.1683,-0.1719,-0.1726,-0.1732,-0.1741,-0.1754,-0.1759,-0.1801,-0.1827,-0.1782,-0.1783,-0.1867,-0.1869,-0.187,-0.1921,0,0,0,0,0,0,-0.1561,-0.1571,-0.1592,-0.1614,-0.1626,-0.1682,-0.1677,-0.1684,-0.1724,-0.1728,-0.1756,-0.1759,-0.1755,-0.1798,-0.1802,-0.1828,-0.1784,-0.1865,-0.1867,-0.187,-0.1918,-0.1925,-0.1931,0,0,0,0,0,-0.1557,-0.1581,-0.1592,-0.1602,-0.1649,-0.1683,-0.169,-0.1716,-0.1726,-0.1748,-0.1769,-0.1759,-0.1817,-0.1801,-0.1806,-0.1832,-0.1864,-0.1867,-0.187,-0.1915,-0.1923,-0.193,0,0,0,0,0,0,-0.1552,-0.1587,-0.16,-0.1634,-0.1666,-0.1689,-0.1718,-0.1733,-0.1768,-0.1779,-0.178,-0.1785,-0.183,-0.1827,-0.1809,-0.1865,-0.1837,-0.1841,-0.187,-0.1878,-0.1884,-0.1875,-0.1786,0,0,0,0,0,-0.156,-0.1588,-0.1619,-0.1651,-0.1669,-0.1699,-0.1722,-0.1741,-0.1768,-0.1785,-0.1804,-0.1824,-0.1842,-0.1858,-0.1873,-0.1908,-0.1877,-0.1927,-0.1933,-0.1938,-0.1935,-0.1917,-0.192,-0.1881,-0.1881,-0.1881,0,0,-0.1568,-0.1591,-0.1609,-0.1652,-0.168,-0.1713,-0.1714,-0.1759,-0.1788,-0.1784,-0.1839,-0.1851,-0.1857,-0.1894,-0.1913,-0.1898,-0.1933,-0.1942,-0.1947,-0.194,-0.192,-0.1924,-0.1927,-0.1883,-0.1883,-0.1882,0,0,-0.1587,-0.1619,-0.1648,-0.1677,-0.1726,-0.1743,-0.1762,-0.1804,-0.1829,-0.1877,-0.1879,-0.1908,-0.1945,-0.1949,-0.1954,-0.2006,-0.1968,-0.2017,-0.2043,-0.2026,-0.2028,-0.203,-0.1987,-0.1985,-0.2019,-0.2019,-0.2019,0,-0.1597,-0.1633,-0.1662,-0.1697,-0.1725,-0.1759,-0.1794,-0.1825,-0.1876,-0.1895,-0.1904,-0.1955,-0.1966,-0.1993,-0.2013,-0.2019,-0.1994,-0.2013,-0.2032,-0.2034,-0.2035,-0.199,-0.1987,-0.2022,-0.2022,-0.2022,-0.2021,0,-0.1628,-0.1669,-0.1691,-0.1742,-0.1777,-0.1816,-0.1856,-0.1897,-0.1931,-0.1953,-0.2001,-0.2017,-0.204,-0.2054,-0.2052,-0.2072,-0.2045,-0.2042,-0.2009,-0.2041,-0.1992,-0.1988,-0.2026,-0.2025,-0.2024,-0.2024,0,0,-0.1612,-0.1696,-0.1705,-0.1739,-0.1805,-0.1834,-0.189,-0.1938,-0.1969,-0.2018,-0.2047,-0.209,-0.2097,-0.2103,-0.2105,-0.2097,-0.2086,-0.2079,-0.2077,-0.2028,-0.2028,-0.1884,-0.1865,-0.2087,-0.2087,-0.2086,-0.1987,0,-0.1627,-0.1692,-0.1732,-0.1798,-0.1834,-0.1885,-0.1929,-0.1979,-0.2017,-0.2054,-0.2074,-0.2106,-0.2115,-0.2129,-0.2127,-0.2097,-0.2079,-0.2112,-0.2011,-0.2007,-0.1869,-0.1857,-0.2086,-0.1984,-0.1983,-0.1982,-0.1981,0,-0.1631,-0.1679,-0.1743,-0.1825,-0.1846,-0.1893,-0.1962,-0.2007,-0.2059,-0.2088,-0.2121,-0.2132,-0.2143,-0.2141,-0.2101,-0.2122,-0.2082,-0.2051,-0.2047,-0.1889,-0.1855,-0.1947,-0.1973,-0.1973,-0.1974,-0.1975,-0.1975,0,-0.1586,-0.1679,-0.1731,-0.1761,-0.1859,-0.1902,-0.1954,-0.2019,-0.2048,-0.2106,-0.2116,-0.2142,-0.2135,-0.2112,-0.2061,-0.2084,-0.1986,-0.2005,-0.1833,-0.1821,-0.196,-0.1959,-0.1964,-0.1964,-0.1964,-0.1964,-0.1965,0,-0.1564,-0.1611,-0.1722,-0.1752,-0.1813,-0.1891,-0.195,-0.2002,-0.2058,-0.2058,-0.2129,-0.2103,-0.2128,-0.2078,-0.2047,-0.1903,-0.1971,-0.1817,-0.1782,-0.1983,-0.1986,-0.1955,-0.1956,-0.1961,-0.1961,-0.1962,-0.1963,0,-0.1496,-0.1574,-0.164,-0.1756,-0.1793,-0.1836,-0.1937,-0.1953,-0.2034,-0.2027,-0.204,-0.2063,-0.1987,-0.1978,-0.191,-0.1846,-0.1754,-0.169,-0.1878,-0.1859,-0.1607,-0.1612,-0.1484,-0.1478,-0.1473,-0.1469,-0.1466,0,-0.1462,-0.1491,-0.1618,-0.1646,-0.1703,-0.1783,-0.181,-0.1921,-0.1919,-0.1963,-0.1919,-0.1895,-0.1883,-0.1664,-0.169,-0.1597,-0.1585,-0.1534,-0.1599,-0.1577,-0.1556,-0.1569,-0.158,-0.1457,-0.1456,-0.1455,-0.1453,0,-0.1387,-0.1442,-0.1488,-0.1532,-0.1581,-0.1625,-0.1675,-0.1676,-0.1753,-0.1849,-0.174,-0.1689,-0.1589,-0.1536,-0.1467,-0.1415,-0.1572,-0.1481,-0.1492,-0.1553,-0.1543,-0.153,-0.1547,-0.1436,-0.1438,-0.144,-0.1441,0,-0.1314,-0.1313,-0.1354,-0.1377,-0.1424,-0.1405,-0.149,-0.147,-0.1496,-0.1571,-0.1519,-0.1505,-0.1545,-0.1435,-0.1372,-0.1306,-0.1298,-0.1272,-0.1294,-0.1314,-0.1306,-0.1272,-0.1028,0,0,0,0,0,-0.122,-0.1175,-0.1183,-0.1186,-0.1222,-0.1244,-0.1335,-0.1419,-0.1522,-0.1394,-0.1459,-0.1364,-0.1269,-0.1273,-0.1165,-0.1289,-0.1303,-0.116,-0.1286,-0.1338,-0.1358,-0.1366,0,0,0,0,0,0,-0.1145,-0.1138,-0.1114,-0.0992,-0.0965,-0.0975,-0.1038,-0.1136,-0.1091,-0.1214,-0.1168,-0.1256,-0.1185,-0.1278,-0.1118,-0.112,-0.1168,-0.1177,-0.1173,-0.1326,-0.1345,-0.1361,-0.1377,0,0,0,0,0]},{"header":{"parameterUnit":"m.s-1","parameterCategory":2,"la1":30.2991,"la2":30.254,"lo1":-89.0895,"lo2":-89.0444,"dy":0.0017,"dx":0.0017,"nx":28,"ny":28,"refTime":"2024-05-25T21:00:00:Z","depth":"4","parameterNumber":3,"parameterNumberName":"V-component_of_CURRENTS"},"data":[0,0,0,0,0,0,0,0,0,0,0,0,0,0,0,0,0,0,0,0,0,0,0,0,0,0,0,0,0,0,0,0,0,0,0,0,0,0,0,0,0,0,0,0,0,0,0,0,0,0,0,0,0,0,0,0,0,0,-0.022,-0.0219,0,-0.0167,-0.0166,-0.0165,-0.0141,-0.0141,-0.0141,-0.0141,-0.0059,-0.0057,-0.0055,0,0,0,0,0,0,0,0,0,0,0,0,0,-0.0262,-0.0261,-0.022,-0.0219,-0.0218,-0.0167,-0.0166,-0.0165,-0.0141,-0.0141,-0.0141,-0.0141,-0.006,-0.0058,-0.0055,0,0,0,0,0,0,0,0,0,0,0,0,0,-0.0229,-0.0261,-0.022,-0.02,-0.0198,-0.0167,-0.0166,-0.0165,-0.0141,-0.0141,-0.0141,-0.0141,-0.0061,-0.0058,-0.0054,-0.0031,0,0,-0.0044,-0.0043,0,0,0,0,0,0,0,0,-0.0231,-0.0228,-0.0204,-0.0202,-0.0199,-0.0161,-0.0151,-0.0119,-0.0141,-0.0162,-0.0141,-0.0141,-0.0091,-0.0085,-0.0075,-0.0027,-0.0024,-0.0044,-0.0042,-0.004,-0.0039,0,0,0,0,0,0,0,-0.0234,-0.023,-0.0198,-0.0203,-0.02,-0.0181,-0.0177,-0.0145,-0.0126,-0.016,-0.0158,-0.0153,-0.0089,-0.0078,-0.0072,-0.0023,-0.0044,-0.0041,-0.0039,-0.0038,0.0055,0.0055,0,0,0,0,0,0,-0.0243,-0.0232,-0.02,-0.0197,-0.0216,-0.0181,-0.0176,-0.0173,-0.0126,-0.012,-0.0153,-0.0152,-0.0084,-0.0076,-0.0069,-0.0039,-0.004,-0.0037,-0.0035,0.0054,0.0055,0.0055,0,0,0,0,0,0,-0.0244,-0.024,-0.0202,-0.0213,-0.0207,-0.018,-0.0176,-0.0172,-0.0163,-0.0121,-0.0114,-0.0151,-0.0083,-0.0074,-0.0042,-0.0036,-0.0036,-0.0033,0.0054,0.0054,0.0055,0.0021,0,0,0,0,0,0,-0.0245,-0.0241,-0.0245,-0.0214,-0.0207,-0.0188,-0.0176,-0.017,-0.016,-0.0158,-0.0117,-0.0109,-0.0083,-0.0047,-0.0039,-0.0031,-0.003,0.0053,0.0054,0.0055,0.0022,0.002,0.0019,0,0,0,0,0,-0.0247,-0.025,-0.0246,-0.0242,-0.0212,-0.0188,-0.0182,-0.0163,-0.016,-0.0156,-0.0128,-0.0111,-0.0036,-0.0044,-0.0034,-0.0026,0.0053,0.0054,0.0055,0.0022,0.0021,0.0019,0,0,0,0,0,0,-0.0268,-0.0247,-0.0241,-0.0238,-0.0217,-0.0184,-0.0181,-0.0167,-0.0142,-0.0143,-0.0105,-0.0094,-0.0066,-0.0039,-0.0049,0.0004,0.0011,0.0014,-0.0017,-0.0018,-0.0019,-0.0031,-0.0027,0,0,0,0,0,-0.0276,-0.0275,-0.0248,-0.0246,-0.0239,-0.0212,-0.0202,-0.0188,-0.016,-0.015,-0.012,-0.0086,-0.0052,-0.0032,-0.0002,0.003,0.005,0.0042,0.0041,0.004,0.0037,0.0075,0.0077,0.0058,0.0058,0.0058,0,0,-0.0284,-0.0273,-0.0272,-0.0251,-0.0236,-0.0224,-0.0206,-0.0194,-0.018,-0.0144,-0.012,-0.0091,-0.0046,-0.0015,0.0002,0.0008,0.0055,0.0041,0.004,0.0038,0.0076,0.0078,0.0079,0.0059,0.0059,0.0059,0,0,-0.0298,-0.0291,-0.0294,-0.0279,-0.0259,-0.024,-0.0238,-0.0207,-0.0192,-0.0164,-0.0136,-0.0103,-0.0054,-0.0018,0.0007,0.002,0.0043,0.0028,0.0019,0.0055,0.0057,0.0059,0.0078,0.0081,0.0033,0.0033,0.0033,0,-0.031,-0.031,-0.0291,-0.0286,-0.0279,-0.0249,-0.0247,-0.0222,-0.0183,-0.0171,-0.0163,-0.0091,-0.0053,-0.0008,-0.0002,0.0018,0.0033,0.0018,0.0053,0.0055,0.0057,0.0077,0.0081,0.0031,0.0031,0.0032,0.0032,0,-0.0322,-0.0323,-0.0323,-0.031,-0.0296,-0.0291,-0.0256,-0.0242,-0.0222,-0.0195,-0.0157,-0.0105,-0.0064,-0.0042,-0.0015,0.0022,0.0025,0.0041,0.0052,0.0057,0.0077,0.0082,0.0029,0.003,0.003,0.0031,0,0,-0.0351,-0.0336,-0.0339,-0.0344,-0.0312,-0.0306,-0.0282,-0.0255,-0.0248,-0.0202,-0.0184,-0.0116,-0.0096,-0.0066,-0.0027,0.0013,0.0045,0.0031,0.0033,0.0041,0.011,0.0106,0.0111,0.0063,0.0064,0.0065,0.0114,0,-0.037,-0.0382,-0.036,-0.0368,-0.0372,-0.0337,-0.032,-0.029,-0.0259,-0.0233,-0.0171,-0.014,-0.0101,-0.0086,-0.004,0.0023,0.0058,0.0029,0.0111,0.0113,0.0103,0.0117,0.0068,0.0118,0.0119,0.012,0.012,0,-0.0391,-0.04,-0.0416,-0.0411,-0.0409,-0.0406,-0.0389,-0.0367,-0.0314,-0.0288,-0.0241,-0.0195,-0.0126,-0.01,0.0009,-0.0014,0.0041,0.0091,0.0094,0.0106,0.0119,0.0116,0.013,0.0129,0.0129,0.0128,0.0127,0,-0.0438,-0.0439,-0.0461,-0.0458,-0.0441,-0.0446,-0.0437,-0.0395,-0.0381,-0.0328,-0.0311,-0.0228,-0.0186,-0.0103,0.0004,0.0005,0.0116,0.0132,0.018,0.0179,0.0182,0.018,0.0202,0.0202,0.0202,0.0202,0.0202,0,-0.0466,-0.0487,-0.0492,-0.0505,-0.0539,-0.0503,-0.0519,-0.0495,-0.0452,-0.0436,-0.0351,-0.0315,-0.0184,-0.01,-0.0011,0.0098,0.0106,0.0178,0.0196,0.0165,0.0161,0.0185,0.0182,0.0204,0.0203,0.0203,0.0203,0,-0.051,-0.0509,-0.0545,-0.0554,-0.0563,-0.0592,-0.0586,-0.0591,-0.0538,-0.0514,-0.0498,-0.0376,-0.0262,-0.0137,0.0007,0.0078,0.0181,0.0216,0.0161,0.0175,0.0221,0.0216,0.0272,0.0273,0.0273,0.0273,0.0274,0,-0.0533,-0.0554,-0.06,-0.0637,-0.0648,-0.0678,-0.0696,-0.0652,-0.0644,-0.0548,-0.0539,-0.0416,-0.0328,-0.0134,0.0003,0.0165,0.0191,0.0236,0.0245,0.0219,0.0231,0.0225,0.022,0.0274,0.0274,0.0274,0.0274,0,-0.0583,-0.0603,-0.0638,-0.0715,-0.0757,-0.0795,-0.081,-0.0801,-0.0733,-0.0678,-0.0569,-0.0438,-0.0304,-0.0138,-0.0011,0.0108,0.0204,0.024,0.0241,0.0249,0.0221,0.0232,0.0226,0.0275,0.0275,0.0275,0.0275,0,-0.063,-0.0674,-0.0726,-0.0787,-0.0853,-0.0899,-0.0891,-0.0856,-0.0826,-0.0691,-0.0654,-0.0478,-0.036,-0.0166,-0.0049,0.0068,0.0103,0.0137,0.0144,0.0144,0.0099,0.0045,0.0061,0,0,0,0,0,-0.0674,-0.0722,-0.079,-0.086,-0.0924,-0.095,-0.0962,-0.093,-0.0845,-0.0781,-0.0709,-0.0576,-0.0349,-0.0238,-0.0125,-0.006,0.0102,0.0076,0.0137,0.0281,0.028,0.025,0,0,0,0,0,0,-0.0708,-0.0777,-0.0803,-0.0907,-0.095,-0.1015,-0.102,-0.0962,-0.0907,-0.0797,-0.0681,-0.0555,-0.0347,-0.042,-0.0125,-0.0082,-0.003,0.0201,0.0203,0.0282,0.0281,0.028,0.0248,0,0,0,0,0]}]]